owner,sensor,date,latitude,longitude,sea_surface_height_above_sea_level,qcFlag 
COMPS,ioos:station:USF.COMPS:SHP:1,2013-09-01T00:00:00Z,30.0600,-84.2910,-0.218,1111122 
COMPS,ioos:station:USF.COMPS:SHP:1,2013-09-01T00:06:00Z,30.0600,-84.2910,-0.205,1111122 
COMPS,ioos:station:USF.COMPS:SHP:1,2013-09-01T00:12:00Z,30.0600,-84.2910,-0.197,1111122 
COMPS,ioos:station:USF.COMPS:SHP:1,2013-09-01T00:18:00Z,30.0600,-84.2910,-0.187,1111122 
COMPS,ioos:station:USF.COMPS:SHP:1,2013-09-01T00:24:00Z,30.0600,-84.2910,-0.177,1111122 
COMPS,ioos:station:USF.COMPS:SHP:1,2013-09-01T00:30:00Z,30.0600,-84.2910,-0.169,1111122 
COMPS,ioos:station:USF.COMPS:SHP:1,2013-09-01T00:36:00Z,30.0600,-84.2910,-0.155,1111122 
COMPS,ioos:station:USF.COMPS:SHP:1,2013-09-01T00:42:00Z,30.0600,-84.2910,-0.137,1111122 
COMPS,ioos:station:USF.COMPS:SHP:1,2013-09-01T00:48:00Z,30.0600,-84.2910,-0.121,1111122 
COMPS,ioos:station:USF.COMPS:SHP:1,2013-09-01T00:54:00Z,30.0600,-84.2910,-0.105,1111122 
COMPS,ioos:station:USF.COMPS:SHP:1,2013-09-01T01:00:00Z,30.0600,-84.2910,-0.089,1111122 
COMPS,ioos:station:USF.COMPS:SHP:1,2013-09-01T01:06:00Z,30.0600,-84.2910,-0.067,1111122 
COMPS,ioos:station:USF.COMPS:SHP:1,2013-09-01T01:12:00Z,30.0600,-84.2910,-0.046,1111122 
COMPS,ioos:station:USF.COMPS:SHP:1,2013-09-01T01:18:00Z,30.0600,-84.2910,-0.027,1111122 
COMPS,ioos:station:USF.COMPS:SHP:1,2013-09-01T01:24:00Z,30.0600,-84.2910,-0.005,1111122 
COMPS,ioos:station:USF.COMPS:SHP:1,2013-09-01T01:30:00Z,30.0600,-84.2910,0.021,1111122 
COMPS,ioos:station:USF.COMPS:SHP:1,2013-09-01T01:36:00Z,30.0600,-84.2910,0.041,1111122 
COMPS,ioos:station:USF.COMPS:SHP:1,2013-09-01T01:42:00Z,30.0600,-84.2910,0.058,1111122 
COMPS,ioos:station:USF.COMPS:SHP:1,2013-09-01T01:48:00Z,30.0600,-84.2910,0.077,1111122 
COMPS,ioos:station:USF.COMPS:SHP:1,2013-09-01T01:54:00Z,30.0600,-84.2910,0.094,1111122 
COMPS,ioos:station:USF.COMPS:SHP:1,2013-09-01T02:00:00Z,30.0600,-84.2910,0.115,1111122 
COMPS,ioos:station:USF.COMPS:SHP:1,2013-09-01T02:06:00Z,30.0600,-84.2910,0.14,1111122 
COMPS,ioos:station:USF.COMPS:SHP:1,2013-09-01T02:12:00Z,30.0600,-84.2910,0.164,1111122 
COMPS,ioos:station:USF.COMPS:SHP:1,2013-09-01T02:18:00Z,30.0600,-84.2910,0.182,1111122 
COMPS,ioos:station:USF.COMPS:SHP:1,2013-09-01T02:24:00Z,30.0600,-84.2910,0.198,1111122 
COMPS,ioos:station:USF.COMPS:SHP:1,2013-09-01T02:30:00Z,30.0600,-84.2910,0.217,1111122 
COMPS,ioos:station:USF.COMPS:SHP:1,2013-09-01T02:36:00Z,30.0600,-84.2910,0.241,1111122 
COMPS,ioos:station:USF.COMPS:SHP:1,2013-09-01T02:42:00Z,30.0600,-84.2910,0.266,1111122 
COMPS,ioos:station:USF.COMPS:SHP:1,2013-09-01T02:48:00Z,30.0600,-84.2910,0.282,1111122 
COMPS,ioos:station:USF.COMPS:SHP:1,2013-09-01T02:54:00Z,30.0600,-84.2910,0.296,1111122 
COMPS,ioos:station:USF.COMPS:SHP:1,2013-09-01T03:00:00Z,30.0600,-84.2910,0.318,1111122 
COMPS,ioos:station:USF.COMPS:SHP:1,2013-09-01T03:06:00Z,30.0600,-84.2910,0.338,1111122 
COMPS,ioos:station:USF.COMPS:SHP:1,2013-09-01T03:12:00Z,30.0600,-84.2910,0.344,1111122 
COMPS,ioos:station:USF.COMPS:SHP:1,2013-09-01T03:18:00Z,30.0600,-84.2910,0.355,1111122 
COMPS,ioos:station:USF.COMPS:SHP:1,2013-09-01T03:24:00Z,30.0600,-84.2910,0.374,1111122 
COMPS,ioos:station:USF.COMPS:SHP:1,2013-09-01T03:30:00Z,30.0600,-84.2910,0.391,1111122 
COMPS,ioos:station:USF.COMPS:SHP:1,2013-09-01T03:36:00Z,30.0600,-84.2910,0.414,1111122 
COMPS,ioos:station:USF.COMPS:SHP:1,2013-09-01T03:42:00Z,30.0600,-84.2910,0.431,1111122 
COMPS,ioos:station:USF.COMPS:SHP:1,2013-09-01T03:48:00Z,30.0600,-84.2910,0.434,1111122 
COMPS,ioos:station:USF.COMPS:SHP:1,2013-09-01T03:54:00Z,30.0600,-84.2910,0.448,1111122 
COMPS,ioos:station:USF.COMPS:SHP:1,2013-09-01T04:00:00Z,30.0600,-84.2910,0.465,1111122 
COMPS,ioos:station:USF.COMPS:SHP:1,2013-09-01T04:06:00Z,30.0600,-84.2910,0.476,1111122 
COMPS,ioos:station:USF.COMPS:SHP:1,2013-09-01T04:12:00Z,30.0600,-84.2910,0.48,1111122 
COMPS,ioos:station:USF.COMPS:SHP:1,2013-09-01T04:18:00Z,30.0600,-84.2910,0.493,1111122 
COMPS,ioos:station:USF.COMPS:SHP:1,2013-09-01T04:24:00Z,30.0600,-84.2910,0.501,1111122 
COMPS,ioos:station:USF.COMPS:SHP:1,2013-09-01T04:30:00Z,30.0600,-84.2910,0.493,1111122 
COMPS,ioos:station:USF.COMPS:SHP:1,2013-09-01T04:36:00Z,30.0600,-84.2910,0.504,1111122 
COMPS,ioos:station:USF.COMPS:SHP:1,2013-09-01T04:42:00Z,30.0600,-84.2910,0.516,1111122 
COMPS,ioos:station:USF.COMPS:SHP:1,2013-09-01T04:48:00Z,30.0600,-84.2910,0.515,1111122 
COMPS,ioos:station:USF.COMPS:SHP:1,2013-09-01T04:54:00Z,30.0600,-84.2910,0.509,1111122 
COMPS,ioos:station:USF.COMPS:SHP:1,2013-09-01T05:00:00Z,30.0600,-84.2910,0.508,1111122 
COMPS,ioos:station:USF.COMPS:SHP:1,2013-09-01T05:06:00Z,30.0600,-84.2910,0.526,1111122 
COMPS,ioos:station:USF.COMPS:SHP:1,2013-09-01T05:12:00Z,30.0600,-84.2910,0.536,1111122 
COMPS,ioos:station:USF.COMPS:SHP:1,2013-09-01T05:18:00Z,30.0600,-84.2910,0.542,1111122 
COMPS,ioos:station:USF.COMPS:SHP:1,2013-09-01T05:24:00Z,30.0600,-84.2910,0.537,1111122 
COMPS,ioos:station:USF.COMPS:SHP:1,2013-09-01T05:30:00Z,30.0600,-84.2910,0.528,1111122 
COMPS,ioos:station:USF.COMPS:SHP:1,2013-09-01T05:36:00Z,30.0600,-84.2910,0.527,1111122 
COMPS,ioos:station:USF.COMPS:SHP:1,2013-09-01T05:42:00Z,30.0600,-84.2910,0.526,1111122 
COMPS,ioos:station:USF.COMPS:SHP:1,2013-09-01T05:48:00Z,30.0600,-84.2910,0.528,1111122 
COMPS,ioos:station:USF.COMPS:SHP:1,2013-09-01T05:54:00Z,30.0600,-84.2910,0.524,1111122 
COMPS,ioos:station:USF.COMPS:SHP:1,2013-09-01T06:00:00Z,30.0600,-84.2910,0.521,1111122 
COMPS,ioos:station:USF.COMPS:SHP:1,2013-09-01T06:06:00Z,30.0600,-84.2910,0.517,1111122 
COMPS,ioos:station:USF.COMPS:SHP:1,2013-09-01T06:12:00Z,30.0600,-84.2910,0.506,1111122 
COMPS,ioos:station:USF.COMPS:SHP:1,2013-09-01T06:18:00Z,30.0600,-84.2910,0.5,1111122 
COMPS,ioos:station:USF.COMPS:SHP:1,2013-09-01T06:24:00Z,30.0600,-84.2910,0.5,1111122 
COMPS,ioos:station:USF.COMPS:SHP:1,2013-09-01T06:30:00Z,30.0600,-84.2910,0.502,1111122 
COMPS,ioos:station:USF.COMPS:SHP:1,2013-09-01T06:36:00Z,30.0600,-84.2910,0.493,1111122 
COMPS,ioos:station:USF.COMPS:SHP:1,2013-09-01T06:42:00Z,30.0600,-84.2910,0.476,1111122 
COMPS,ioos:station:USF.COMPS:SHP:1,2013-09-01T06:48:00Z,30.0600,-84.2910,0.469,1111122 
COMPS,ioos:station:USF.COMPS:SHP:1,2013-09-01T06:54:00Z,30.0600,-84.2910,0.448,1111122 
COMPS,ioos:station:USF.COMPS:SHP:1,2013-09-01T07:00:00Z,30.0600,-84.2910,0.429,1111122 
COMPS,ioos:station:USF.COMPS:SHP:1,2013-09-01T07:06:00Z,30.0600,-84.2910,0.43,1111122 
COMPS,ioos:station:USF.COMPS:SHP:1,2013-09-01T07:12:00Z,30.0600,-84.2910,0.408,1111122 
COMPS,ioos:station:USF.COMPS:SHP:1,2013-09-01T07:18:00Z,30.0600,-84.2910,0.38,1111122 
COMPS,ioos:station:USF.COMPS:SHP:1,2013-09-01T07:24:00Z,30.0600,-84.2910,0.371,1111122 
COMPS,ioos:station:USF.COMPS:SHP:1,2013-09-01T07:30:00Z,30.0600,-84.2910,0.366,1111122 
COMPS,ioos:station:USF.COMPS:SHP:1,2013-09-01T07:36:00Z,30.0600,-84.2910,0.355,1111122 
COMPS,ioos:station:USF.COMPS:SHP:1,2013-09-01T07:42:00Z,30.0600,-84.2910,0.348,1111122 
COMPS,ioos:station:USF.COMPS:SHP:1,2013-09-01T07:48:00Z,30.0600,-84.2910,0.34,1111122 
COMPS,ioos:station:USF.COMPS:SHP:1,2013-09-01T07:54:00Z,30.0600,-84.2910,0.338,1111122 
COMPS,ioos:station:USF.COMPS:SHP:1,2013-09-01T08:00:00Z,30.0600,-84.2910,0.327,1111122 
COMPS,ioos:station:USF.COMPS:SHP:1,2013-09-01T08:06:00Z,30.0600,-84.2910,0.306,1111122 
COMPS,ioos:station:USF.COMPS:SHP:1,2013-09-01T08:12:00Z,30.0600,-84.2910,0.3,1111122 
COMPS,ioos:station:USF.COMPS:SHP:1,2013-09-01T08:18:00Z,30.0600,-84.2910,0.28,1111122 
COMPS,ioos:station:USF.COMPS:SHP:1,2013-09-01T08:24:00Z,30.0600,-84.2910,0.258,1111122 
COMPS,ioos:station:USF.COMPS:SHP:1,2013-09-01T08:30:00Z,30.0600,-84.2910,0.248,1111122 
COMPS,ioos:station:USF.COMPS:SHP:1,2013-09-01T08:36:00Z,30.0600,-84.2910,0.227,1111122 
COMPS,ioos:station:USF.COMPS:SHP:1,2013-09-01T08:42:00Z,30.0600,-84.2910,0.201,1111122 
COMPS,ioos:station:USF.COMPS:SHP:1,2013-09-01T08:48:00Z,30.0600,-84.2910,0.193,1111122 
COMPS,ioos:station:USF.COMPS:SHP:1,2013-09-01T08:54:00Z,30.0600,-84.2910,0.189,1111122 
COMPS,ioos:station:USF.COMPS:SHP:1,2013-09-01T09:00:00Z,30.0600,-84.2910,0.18,1111122 
COMPS,ioos:station:USF.COMPS:SHP:1,2013-09-01T09:06:00Z,30.0600,-84.2910,0.167,1111122 
COMPS,ioos:station:USF.COMPS:SHP:1,2013-09-01T09:12:00Z,30.0600,-84.2910,0.168,1111122 
COMPS,ioos:station:USF.COMPS:SHP:1,2013-09-01T09:18:00Z,30.0600,-84.2910,0.167,1111122 
COMPS,ioos:station:USF.COMPS:SHP:1,2013-09-01T09:24:00Z,30.0600,-84.2910,0.16,1111122 
COMPS,ioos:station:USF.COMPS:SHP:1,2013-09-01T09:30:00Z,30.0600,-84.2910,0.156,1111122 
COMPS,ioos:station:USF.COMPS:SHP:1,2013-09-01T09:36:00Z,30.0600,-84.2910,0.147,1111122 
COMPS,ioos:station:USF.COMPS:SHP:1,2013-09-01T09:42:00Z,30.0600,-84.2910,0.132,1111122 
COMPS,ioos:station:USF.COMPS:SHP:1,2013-09-01T09:48:00Z,30.0600,-84.2910,0.13,1111122 
COMPS,ioos:station:USF.COMPS:SHP:1,2013-09-01T09:54:00Z,30.0600,-84.2910,0.122,1111122 
COMPS,ioos:station:USF.COMPS:SHP:1,2013-09-01T10:00:00Z,30.0600,-84.2910,0.109,1111122 
COMPS,ioos:station:USF.COMPS:SHP:1,2013-09-01T10:06:00Z,30.0600,-84.2910,0.108,1111122 
COMPS,ioos:station:USF.COMPS:SHP:1,2013-09-01T10:12:00Z,30.0600,-84.2910,0.122,1111122 
COMPS,ioos:station:USF.COMPS:SHP:1,2013-09-01T10:18:00Z,30.0600,-84.2910,0.124,1111122 
COMPS,ioos:station:USF.COMPS:SHP:1,2013-09-01T10:24:00Z,30.0600,-84.2910,0.114,1111122 
COMPS,ioos:station:USF.COMPS:SHP:1,2013-09-01T10:30:00Z,30.0600,-84.2910,0.113,1111122 
COMPS,ioos:station:USF.COMPS:SHP:1,2013-09-01T10:36:00Z,30.0600,-84.2910,0.117,1111122 
COMPS,ioos:station:USF.COMPS:SHP:1,2013-09-01T10:42:00Z,30.0600,-84.2910,0.128,1111122 
COMPS,ioos:station:USF.COMPS:SHP:1,2013-09-01T10:48:00Z,30.0600,-84.2910,0.124,1111122 
COMPS,ioos:station:USF.COMPS:SHP:1,2013-09-01T10:54:00Z,30.0600,-84.2910,0.123,1111122 
COMPS,ioos:station:USF.COMPS:SHP:1,2013-09-01T11:00:00Z,30.0600,-84.2910,0.125,1111122 
COMPS,ioos:station:USF.COMPS:SHP:1,2013-09-01T11:06:00Z,30.0600,-84.2910,0.117,1111122 
COMPS,ioos:station:USF.COMPS:SHP:1,2013-09-01T11:12:00Z,30.0600,-84.2910,0.107,1111122 
COMPS,ioos:station:USF.COMPS:SHP:1,2013-09-01T11:18:00Z,30.0600,-84.2910,0.112,1111122 
COMPS,ioos:station:USF.COMPS:SHP:1,2013-09-01T11:24:00Z,30.0600,-84.2910,0.137,1111122 
COMPS,ioos:station:USF.COMPS:SHP:1,2013-09-01T11:30:00Z,30.0600,-84.2910,0.141,1111122 
COMPS,ioos:station:USF.COMPS:SHP:1,2013-09-01T11:36:00Z,30.0600,-84.2910,0.142,1111122 
COMPS,ioos:station:USF.COMPS:SHP:1,2013-09-01T11:42:00Z,30.0600,-84.2910,0.153,1111122 
COMPS,ioos:station:USF.COMPS:SHP:1,2013-09-01T11:48:00Z,30.0600,-84.2910,0.156,1111122 
COMPS,ioos:station:USF.COMPS:SHP:1,2013-09-01T11:54:00Z,30.0600,-84.2910,0.17,1111122 
COMPS,ioos:station:USF.COMPS:SHP:1,2013-09-01T12:00:00Z,30.0600,-84.2910,0.186,1111122 
COMPS,ioos:station:USF.COMPS:SHP:1,2013-09-01T12:06:00Z,30.0600,-84.2910,0.196,1111122 
COMPS,ioos:station:USF.COMPS:SHP:1,2013-09-01T12:12:00Z,30.0600,-84.2910,0.212,1111122 
COMPS,ioos:station:USF.COMPS:SHP:1,2013-09-01T12:18:00Z,30.0600,-84.2910,0.23,1111122 
COMPS,ioos:station:USF.COMPS:SHP:1,2013-09-01T12:24:00Z,30.0600,-84.2910,0.225,1111122 
COMPS,ioos:station:USF.COMPS:SHP:1,2013-09-01T12:30:00Z,30.0600,-84.2910,0.216,1111122 
COMPS,ioos:station:USF.COMPS:SHP:1,2013-09-01T12:36:00Z,30.0600,-84.2910,0.23,1111122 
COMPS,ioos:station:USF.COMPS:SHP:1,2013-09-01T12:42:00Z,30.0600,-84.2910,0.254,1111122 
COMPS,ioos:station:USF.COMPS:SHP:1,2013-09-01T12:48:00Z,30.0600,-84.2910,0.273,1111122 
COMPS,ioos:station:USF.COMPS:SHP:1,2013-09-01T12:54:00Z,30.0600,-84.2910,0.292,1111122 
COMPS,ioos:station:USF.COMPS:SHP:1,2013-09-01T13:00:00Z,30.0600,-84.2910,0.307,1111122 
COMPS,ioos:station:USF.COMPS:SHP:1,2013-09-01T13:06:00Z,30.0600,-84.2910,0.316,1111122 
COMPS,ioos:station:USF.COMPS:SHP:1,2013-09-01T13:12:00Z,30.0600,-84.2910,0.322,1111122 
COMPS,ioos:station:USF.COMPS:SHP:1,2013-09-01T13:18:00Z,30.0600,-84.2910,0.336,1111122 
COMPS,ioos:station:USF.COMPS:SHP:1,2013-09-01T13:24:00Z,30.0600,-84.2910,0.358,1111122 
COMPS,ioos:station:USF.COMPS:SHP:1,2013-09-01T13:30:00Z,30.0600,-84.2910,0.369,1111122 
COMPS,ioos:station:USF.COMPS:SHP:1,2013-09-01T13:36:00Z,30.0600,-84.2910,0.376,1111122 
COMPS,ioos:station:USF.COMPS:SHP:1,2013-09-01T13:42:00Z,30.0600,-84.2910,0.387,1111122 
COMPS,ioos:station:USF.COMPS:SHP:1,2013-09-01T13:48:00Z,30.0600,-84.2910,0.4,1111122 
COMPS,ioos:station:USF.COMPS:SHP:1,2013-09-01T13:54:00Z,30.0600,-84.2910,0.409,1111122 
COMPS,ioos:station:USF.COMPS:SHP:1,2013-09-01T14:00:00Z,30.0600,-84.2910,0.419,1111122 
COMPS,ioos:station:USF.COMPS:SHP:1,2013-09-01T14:06:00Z,30.0600,-84.2910,0.433,1111122 
COMPS,ioos:station:USF.COMPS:SHP:1,2013-09-01T14:12:00Z,30.0600,-84.2910,0.445,1111122 
COMPS,ioos:station:USF.COMPS:SHP:1,2013-09-01T14:18:00Z,30.0600,-84.2910,0.452,1111122 
COMPS,ioos:station:USF.COMPS:SHP:1,2013-09-01T14:24:00Z,30.0600,-84.2910,0.462,1111122 
COMPS,ioos:station:USF.COMPS:SHP:1,2013-09-01T14:30:00Z,30.0600,-84.2910,0.476,1111122 
COMPS,ioos:station:USF.COMPS:SHP:1,2013-09-01T14:36:00Z,30.0600,-84.2910,0.491,1111122 
COMPS,ioos:station:USF.COMPS:SHP:1,2013-09-01T14:42:00Z,30.0600,-84.2910,0.495,1111122 
COMPS,ioos:station:USF.COMPS:SHP:1,2013-09-01T14:48:00Z,30.0600,-84.2910,0.512,1111122 
COMPS,ioos:station:USF.COMPS:SHP:1,2013-09-01T14:54:00Z,30.0600,-84.2910,0.539,1111122 
COMPS,ioos:station:USF.COMPS:SHP:1,2013-09-01T15:00:00Z,30.0600,-84.2910,0.551,1111122 
COMPS,ioos:station:USF.COMPS:SHP:1,2013-09-01T15:06:00Z,30.0600,-84.2910,0.536,1111122 
COMPS,ioos:station:USF.COMPS:SHP:1,2013-09-01T15:12:00Z,30.0600,-84.2910,0.524,1111122 
COMPS,ioos:station:USF.COMPS:SHP:1,2013-09-01T15:18:00Z,30.0600,-84.2910,0.524,1111122 
COMPS,ioos:station:USF.COMPS:SHP:1,2013-09-01T15:24:00Z,30.0600,-84.2910,0.541,1111122 
COMPS,ioos:station:USF.COMPS:SHP:1,2013-09-01T15:30:00Z,30.0600,-84.2910,0.56,1111122 
COMPS,ioos:station:USF.COMPS:SHP:1,2013-09-01T15:36:00Z,30.0600,-84.2910,0.564,1111122 
COMPS,ioos:station:USF.COMPS:SHP:1,2013-09-01T15:42:00Z,30.0600,-84.2910,0.569,1111122 
COMPS,ioos:station:USF.COMPS:SHP:1,2013-09-01T15:48:00Z,30.0600,-84.2910,0.578,1111122 
COMPS,ioos:station:USF.COMPS:SHP:1,2013-09-01T15:54:00Z,30.0600,-84.2910,0.581,1111122 
COMPS,ioos:station:USF.COMPS:SHP:1,2013-09-01T16:00:00Z,30.0600,-84.2910,0.58,1111122 
COMPS,ioos:station:USF.COMPS:SHP:1,2013-09-01T16:06:00Z,30.0600,-84.2910,0.594,1111122 
COMPS,ioos:station:USF.COMPS:SHP:1,2013-09-01T16:12:00Z,30.0600,-84.2910,0.6,1111122 
COMPS,ioos:station:USF.COMPS:SHP:1,2013-09-01T16:18:00Z,30.0600,-84.2910,0.587,1111122 
COMPS,ioos:station:USF.COMPS:SHP:1,2013-09-01T16:24:00Z,30.0600,-84.2910,0.597,1111122 
COMPS,ioos:station:USF.COMPS:SHP:1,2013-09-01T16:30:00Z,30.0600,-84.2910,0.599,1111122 
COMPS,ioos:station:USF.COMPS:SHP:1,2013-09-01T16:36:00Z,30.0600,-84.2910,0.59,1111122 
COMPS,ioos:station:USF.COMPS:SHP:1,2013-09-01T16:42:00Z,30.0600,-84.2910,0.59,1111122 
COMPS,ioos:station:USF.COMPS:SHP:1,2013-09-01T16:48:00Z,30.0600,-84.2910,0.593,1111122 
COMPS,ioos:station:USF.COMPS:SHP:1,2013-09-01T16:54:00Z,30.0600,-84.2910,0.589,1111122 
COMPS,ioos:station:USF.COMPS:SHP:1,2013-09-01T17:00:00Z,30.0600,-84.2910,0.588,1111122 
COMPS,ioos:station:USF.COMPS:SHP:1,2013-09-01T17:06:00Z,30.0600,-84.2910,0.591,1111122 
COMPS,ioos:station:USF.COMPS:SHP:1,2013-09-01T17:12:00Z,30.0600,-84.2910,0.596,1111122 
COMPS,ioos:station:USF.COMPS:SHP:1,2013-09-01T17:18:00Z,30.0600,-84.2910,0.587,1111122 
COMPS,ioos:station:USF.COMPS:SHP:1,2013-09-01T17:24:00Z,30.0600,-84.2910,0.582,1111122 
COMPS,ioos:station:USF.COMPS:SHP:1,2013-09-01T17:30:00Z,30.0600,-84.2910,0.566,1111122 
COMPS,ioos:station:USF.COMPS:SHP:1,2013-09-01T17:36:00Z,30.0600,-84.2910,0.548,1111122 
COMPS,ioos:station:USF.COMPS:SHP:1,2013-09-01T17:42:00Z,30.0600,-84.2910,0.544,1111122 
COMPS,ioos:station:USF.COMPS:SHP:1,2013-09-01T17:48:00Z,30.0600,-84.2910,0.542,1111122 
COMPS,ioos:station:USF.COMPS:SHP:1,2013-09-01T17:54:00Z,30.0600,-84.2910,0.534,1111122 
COMPS,ioos:station:USF.COMPS:SHP:1,2013-09-01T18:00:00Z,30.0600,-84.2910,0.514,1111122 
COMPS,ioos:station:USF.COMPS:SHP:1,2013-09-01T18:06:00Z,30.0600,-84.2910,0.504,1111122 
COMPS,ioos:station:USF.COMPS:SHP:1,2013-09-01T18:12:00Z,30.0600,-84.2910,0.485,1111122 
COMPS,ioos:station:USF.COMPS:SHP:1,2013-09-01T18:18:00Z,30.0600,-84.2910,0.472,1111122 
COMPS,ioos:station:USF.COMPS:SHP:1,2013-09-01T18:24:00Z,30.0600,-84.2910,0.454,1111122 
COMPS,ioos:station:USF.COMPS:SHP:1,2013-09-01T18:30:00Z,30.0600,-84.2910,0.43,1111122 
COMPS,ioos:station:USF.COMPS:SHP:1,2013-09-01T18:36:00Z,30.0600,-84.2910,0.42,1111122 
COMPS,ioos:station:USF.COMPS:SHP:1,2013-09-01T18:42:00Z,30.0600,-84.2910,0.406,1111122 
COMPS,ioos:station:USF.COMPS:SHP:1,2013-09-01T18:48:00Z,30.0600,-84.2910,0.391,1111122 
COMPS,ioos:station:USF.COMPS:SHP:1,2013-09-01T18:54:00Z,30.0600,-84.2910,0.379,1111122 
COMPS,ioos:station:USF.COMPS:SHP:1,2013-09-01T19:00:00Z,30.0600,-84.2910,0.358,1111122 
COMPS,ioos:station:USF.COMPS:SHP:1,2013-09-01T19:06:00Z,30.0600,-84.2910,0.329,1111122 
COMPS,ioos:station:USF.COMPS:SHP:1,2013-09-01T19:12:00Z,30.0600,-84.2910,0.302,1111122 
COMPS,ioos:station:USF.COMPS:SHP:1,2013-09-01T19:18:00Z,30.0600,-84.2910,0.287,1111122 
COMPS,ioos:station:USF.COMPS:SHP:1,2013-09-01T19:24:00Z,30.0600,-84.2910,0.274,1111122 
COMPS,ioos:station:USF.COMPS:SHP:1,2013-09-01T19:30:00Z,30.0600,-84.2910,0.255,1111122 
COMPS,ioos:station:USF.COMPS:SHP:1,2013-09-01T19:36:00Z,30.0600,-84.2910,0.232,1111122 
COMPS,ioos:station:USF.COMPS:SHP:1,2013-09-01T19:42:00Z,30.0600,-84.2910,0.208,1111122 
COMPS,ioos:station:USF.COMPS:SHP:1,2013-09-01T19:48:00Z,30.0600,-84.2910,0.191,1111122 
COMPS,ioos:station:USF.COMPS:SHP:1,2013-09-01T19:54:00Z,30.0600,-84.2910,0.174,1111122 
COMPS,ioos:station:USF.COMPS:SHP:1,2013-09-01T20:00:00Z,30.0600,-84.2910,0.154,1111122 
COMPS,ioos:station:USF.COMPS:SHP:1,2013-09-01T20:06:00Z,30.0600,-84.2910,0.137,1111122 
COMPS,ioos:station:USF.COMPS:SHP:1,2013-09-01T20:12:00Z,30.0600,-84.2910,0.116,1111122 
COMPS,ioos:station:USF.COMPS:SHP:1,2013-09-01T20:18:00Z,30.0600,-84.2910,0.092,1111122 
COMPS,ioos:station:USF.COMPS:SHP:1,2013-09-01T20:24:00Z,30.0600,-84.2910,0.078,1111122 
COMPS,ioos:station:USF.COMPS:SHP:1,2013-09-01T20:30:00Z,30.0600,-84.2910,0.059,1111122 
COMPS,ioos:station:USF.COMPS:SHP:1,2013-09-01T20:36:00Z,30.0600,-84.2910,0.045,1111122 
COMPS,ioos:station:USF.COMPS:SHP:1,2013-09-01T20:42:00Z,30.0600,-84.2910,0.03,1111122 
COMPS,ioos:station:USF.COMPS:SHP:1,2013-09-01T20:48:00Z,30.0600,-84.2910,0.009,1111122 
COMPS,ioos:station:USF.COMPS:SHP:1,2013-09-01T20:54:00Z,30.0600,-84.2910,-0.01,1111122 
COMPS,ioos:station:USF.COMPS:SHP:1,2013-09-01T21:00:00Z,30.0600,-84.2910,-0.026,1111122 
COMPS,ioos:station:USF.COMPS:SHP:1,2013-09-01T21:06:00Z,30.0600,-84.2910,-0.042,1111122 
COMPS,ioos:station:USF.COMPS:SHP:1,2013-09-01T21:12:00Z,30.0600,-84.2910,-0.066,1111122 
COMPS,ioos:station:USF.COMPS:SHP:1,2013-09-01T21:18:00Z,30.0600,-84.2910,-0.088,1111122 
COMPS,ioos:station:USF.COMPS:SHP:1,2013-09-01T21:24:00Z,30.0600,-84.2910,-0.105,1111122 
COMPS,ioos:station:USF.COMPS:SHP:1,2013-09-01T21:30:00Z,30.0600,-84.2910,-0.119,1111122 
COMPS,ioos:station:USF.COMPS:SHP:1,2013-09-01T21:36:00Z,30.0600,-84.2910,-0.131,1111122 
COMPS,ioos:station:USF.COMPS:SHP:1,2013-09-01T21:42:00Z,30.0600,-84.2910,-0.144,1111122 
COMPS,ioos:station:USF.COMPS:SHP:1,2013-09-01T21:48:00Z,30.0600,-84.2910,-0.16,1111122 
COMPS,ioos:station:USF.COMPS:SHP:1,2013-09-01T21:54:00Z,30.0600,-84.2910,-0.18,1111122 
COMPS,ioos:station:USF.COMPS:SHP:1,2013-09-01T22:00:00Z,30.0600,-84.2910,-0.192,1111122 
COMPS,ioos:station:USF.COMPS:SHP:1,2013-09-01T22:06:00Z,30.0600,-84.2910,-0.203,1111122 
COMPS,ioos:station:USF.COMPS:SHP:1,2013-09-01T22:12:00Z,30.0600,-84.2910,-0.214,1111122 
COMPS,ioos:station:USF.COMPS:SHP:1,2013-09-01T22:18:00Z,30.0600,-84.2910,-0.225,1111122 
COMPS,ioos:station:USF.COMPS:SHP:1,2013-09-01T22:24:00Z,30.0600,-84.2910,-0.233,1111122 
COMPS,ioos:station:USF.COMPS:SHP:1,2013-09-01T22:30:00Z,30.0600,-84.2910,-0.24,1111122 
COMPS,ioos:station:USF.COMPS:SHP:1,2013-09-01T22:36:00Z,30.0600,-84.2910,-0.252,1111122 
COMPS,ioos:station:USF.COMPS:SHP:1,2013-09-01T22:42:00Z,30.0600,-84.2910,-0.261,1111122 
COMPS,ioos:station:USF.COMPS:SHP:1,2013-09-01T22:48:00Z,30.0600,-84.2910,-0.268,1111122 
COMPS,ioos:station:USF.COMPS:SHP:1,2013-09-01T22:54:00Z,30.0600,-84.2910,-0.275,1111122 
COMPS,ioos:station:USF.COMPS:SHP:1,2013-09-01T23:00:00Z,30.0600,-84.2910,-0.283,1111122 
COMPS,ioos:station:USF.COMPS:SHP:1,2013-09-01T23:06:00Z,30.0600,-84.2910,-0.296,1111122 
COMPS,ioos:station:USF.COMPS:SHP:1,2013-09-01T23:12:00Z,30.0600,-84.2910,-0.304,1111122 
COMPS,ioos:station:USF.COMPS:SHP:1,2013-09-01T23:18:00Z,30.0600,-84.2910,-0.305,1111122 
COMPS,ioos:station:USF.COMPS:SHP:1,2013-09-01T23:24:00Z,30.0600,-84.2910,-0.305,1111122 
COMPS,ioos:station:USF.COMPS:SHP:1,2013-09-01T23:30:00Z,30.0600,-84.2910,-0.305,1111122 
COMPS,ioos:station:USF.COMPS:SHP:1,2013-09-01T23:36:00Z,30.0600,-84.2910,-0.304,1111122 
COMPS,ioos:station:USF.COMPS:SHP:1,2013-09-01T23:42:00Z,30.0600,-84.2910,-0.301,1111122 
COMPS,ioos:station:USF.COMPS:SHP:1,2013-09-01T23:48:00Z,30.0600,-84.2910,-0.297,1111122 
COMPS,ioos:station:USF.COMPS:SHP:1,2013-09-01T23:54:00Z,30.0600,-84.2910,-0.296,1111122 
COMPS,ioos:station:USF.COMPS:SHP:1,2013-09-02T00:00:00Z,30.0600,-84.2910,-0.297,1111122 
COMPS,ioos:station:USF.COMPS:SHP:1,2013-09-02T00:06:00Z,30.0600,-84.2910,-0.292,1111122 
COMPS,ioos:station:USF.COMPS:SHP:1,2013-09-02T00:12:00Z,30.0600,-84.2910,-0.284,1111122 
COMPS,ioos:station:USF.COMPS:SHP:1,2013-09-02T00:18:00Z,30.0600,-84.2910,-0.276,1111122 
COMPS,ioos:station:USF.COMPS:SHP:1,2013-09-02T00:24:00Z,30.0600,-84.2910,-0.272,1111122 
COMPS,ioos:station:USF.COMPS:SHP:1,2013-09-02T00:30:00Z,30.0600,-84.2910,-0.265,1111122 
COMPS,ioos:station:USF.COMPS:SHP:1,2013-09-02T00:36:00Z,30.0600,-84.2910,-0.258,1111122 
COMPS,ioos:station:USF.COMPS:SHP:1,2013-09-02T00:42:00Z,30.0600,-84.2910,-0.25,1111122 
COMPS,ioos:station:USF.COMPS:SHP:1,2013-09-02T00:48:00Z,30.0600,-84.2910,-0.239,1111122 
COMPS,ioos:station:USF.COMPS:SHP:1,2013-09-02T00:54:00Z,30.0600,-84.2910,-0.228,1111122 
COMPS,ioos:station:USF.COMPS:SHP:1,2013-09-02T01:00:00Z,30.0600,-84.2910,-0.213,1111122 
COMPS,ioos:station:USF.COMPS:SHP:1,2013-09-02T01:06:00Z,30.0600,-84.2910,-0.197,1111122 
COMPS,ioos:station:USF.COMPS:SHP:1,2013-09-02T01:12:00Z,30.0600,-84.2910,-0.181,1111122 
COMPS,ioos:station:USF.COMPS:SHP:1,2013-09-02T01:18:00Z,30.0600,-84.2910,-0.168,1111122 
COMPS,ioos:station:USF.COMPS:SHP:1,2013-09-02T01:24:00Z,30.0600,-84.2910,-0.155,1111122 
COMPS,ioos:station:USF.COMPS:SHP:1,2013-09-02T01:30:00Z,30.0600,-84.2910,-0.142,1111122 
COMPS,ioos:station:USF.COMPS:SHP:1,2013-09-02T01:36:00Z,30.0600,-84.2910,-0.129,1111122 
COMPS,ioos:station:USF.COMPS:SHP:1,2013-09-02T01:42:00Z,30.0600,-84.2910,-0.109,1111122 
COMPS,ioos:station:USF.COMPS:SHP:1,2013-09-02T01:48:00Z,30.0600,-84.2910,-0.088,1111122 
COMPS,ioos:station:USF.COMPS:SHP:1,2013-09-02T01:54:00Z,30.0600,-84.2910,-0.064,1111122 
COMPS,ioos:station:USF.COMPS:SHP:1,2013-09-02T02:00:00Z,30.0600,-84.2910,-0.041,1111122 
COMPS,ioos:station:USF.COMPS:SHP:1,2013-09-02T02:06:00Z,30.0600,-84.2910,-0.019,1111122 
COMPS,ioos:station:USF.COMPS:SHP:1,2013-09-02T02:12:00Z,30.0600,-84.2910,0.003,1111122 
COMPS,ioos:station:USF.COMPS:SHP:1,2013-09-02T02:18:00Z,30.0600,-84.2910,0.025,1111122 
COMPS,ioos:station:USF.COMPS:SHP:1,2013-09-02T02:24:00Z,30.0600,-84.2910,0.046,1111122 
COMPS,ioos:station:USF.COMPS:SHP:1,2013-09-02T02:30:00Z,30.0600,-84.2910,0.068,1111122 
COMPS,ioos:station:USF.COMPS:SHP:1,2013-09-02T02:36:00Z,30.0600,-84.2910,0.093,1111122 
COMPS,ioos:station:USF.COMPS:SHP:1,2013-09-02T02:42:00Z,30.0600,-84.2910,0.122,1111122 
COMPS,ioos:station:USF.COMPS:SHP:1,2013-09-02T02:48:00Z,30.0600,-84.2910,0.144,1111122 
COMPS,ioos:station:USF.COMPS:SHP:1,2013-09-02T02:54:00Z,30.0600,-84.2910,0.163,1111122 
COMPS,ioos:station:USF.COMPS:SHP:1,2013-09-02T03:00:00Z,30.0600,-84.2910,0.184,1111122 